Showing default

TROLL, 62658

Orbit data source: Space-Track

TROLL, 62658 is a Czech payload satellite in SSO that was launched on Tue, 14 Jan 2025 UTC via an FALCON 9 launch vehicle from the Air Force Western Test Range (AFWTR). Payload-class satellites include a variety of spacecraft equipped with specific instruments for various scientific and technological missions. These include communications satellites like Starlink; space stations such as the ISS; scientific satellites like the Hubble; Earth observation satellites from companies like Planet Labs, Umbra, and HawkEye 360; GPS; miniature CubeSats for education and research; and military/defense satellites.

Loading next visibility...
Identifier
62658, 2025-009BB
Orbit
SSO
Country
Flag of CZCZ / CZE
Related business
Manufacturer
ISIS BV
Mission
Operational Commercial Technology
Bus & Motor
CUBESAT 6U, Unknown motor
Mass
~10 kg wet, ~10 kg dry
Launch date (UTC)
2025-01-14 (1 year ago)
Launch vehicle
FALCON 9
Launch site
Air Force Western Test Range (AFWTR)
Object type
Payload
Rocket body
Debris
Shape & HBR
Box + 2 Pan, 0.1 m
Radar Cross Section
0.080 m², Small (<0.1 m²)

Expand to show TLE details & history
Last TLE update: 7 hours ago

TLE from 7 hours ago
0 TROLL
1 62658U 25009BB  26126.47770273  .00008168  00000-0  28906-3 0  9998
2 62658  97.3888 208.5668 0002471 128.5650 231.5812 15.29402024127076
Epoch: 2026-05-06T11:27Z
TLE epoch observation values (Epoch: 2026-05-06T11:27:53.515Z)
Latitude
-0.00004°
Longitude
172.2562°
Altitude
481.755 km
Speed
7.624 km/s
True Right ascension
13h 54m 16s
True Declination
0° 00' 00"
Sunlit
Object was in full shadow at epoch
Visualization orbit readout
Latitude
Unknown
Longitude
Unknown
Altitude
Unknown
Speed
Unknown
Apparent Right ascension
Unknown
Apparent Declination
Unknown
Sunlit
N/A
Visualization observer readout
Local Sidereal Time
02:06:05
Azimuth
Unknown
Elevation
Unknown
Doppler factor
Unknown
Orbital elements
Apogee altitude
476.245 km
Perigee altitude
472.858 km
Semi-major axis
6,852.688 km
Eccentricity
0.00025
Inclination
97.3888°
RAAN
208.5668°
Arg. of periapsis
128.565°
True anomaly
231.55902°
Mean anomaly
231.5812°
Eccentric anomaly
231.57011°
Mean motion
3.82606 °/min
Orbital period
94.09 mins
BSTAR
0.00028906
Loading maneuver chart data...
Computing Atmospheric mass density...
Loading historical data...
Loading historical data...
Loading historical data...
Loading historical data...
Loading historical data...
Loading historical data...
Loading historical data...

Documentation

Showing up to 5 results
|